Home   Weather   Strasbourg   Past weeks
Flag for France

Past Weather in Strasbourg, Grand-Est, France — Yesterday and Last 2 Weeks

Now
63 °F

Broken clouds.


Feels Like: 63 °F
Forecast: 59 / 55 °F
Wind: 15 mph from West

Location: Strasbourg Airport

Current Time: Oct 18, 2019 at 5:00:08 pm

Latest Report: Oct 18, 2019 at 4:00 pm


Visibility: N/A

Pressure: 29.89 "Hg

Humidity: 68%

Dew Point: 52 °F

Location of StrasbourgLocation

Past Weather in Strasbourg — Graph

°F

Strasbourg Temperature Yesterday

Maximum temperature yesterday: 68 °F (at 1:30 pm)
Minimum temperature yesterday: 52 °F (at 7:00 am)
Average temperature yesterday: 58 °F

High & Low Weather Summary for the Past Weeks

 TemperatureHumidityPressure
High82 °F (Oct 13, 4:30 pm)100% (Oct 6, 7:00 am)30.18 "Hg (Oct 6, 7:00 am)
Low45 °F (Oct 11, 4:00 am)45% (Oct 13, 4:30 pm)29.71 "Hg (Oct 15, 7:00 am)
Average57 °F82%29.95 "Hg
* Reported Oct 3 4:00 pm — Oct 18 4:00 pm, Strasbourg. Weather by CustomWeather, © 2019

Note: Actual official high and low records may vary slightly from our data, if they occured in-between our weather recording intervals... More about our weather records

Advertising

Strasbourg Weather History for the Previous 24 Hours

Scroll right to see more
 ConditionsComfort  
Time TempWeatherWind HumidityBarometerVisibility
4:00 pm
Fri, Oct 18
63 °FBroken clouds.15 mph68%29.89 "HgN/A
3:30 pm64 °FPartly sunny.15 mph68%29.86 "HgN/A
3:00 pm64 °FPartly sunny.12 mph73%29.86 "HgN/A
2:30 pm63 °FBroken clouds.7 mph83%29.86 "HgN/A
2:00 pm63 °FMild.9 mph77%29.86 "HgN/A
1:30 pm63 °FMostly cloudy.6 mph88%29.86 "HgN/A
1:00 pm61 °FBroken clouds.2 mph88%29.89 "HgN/A
12:30 pm59 °FLight rain. Mostly cloudy.10 mph94%29.89 "HgN/A
12:00 pm61 °FRain. Broken clouds.15 mph88%29.89 "HgN/A
11:30 am61 °FPartly sunny.16 mph88%29.86 "HgN/A
11:00 am61 °FBroken clouds.9 mph83%29.86 "HgN/A
10:30 am61 °FPartly sunny.6 mph88%29.86 "HgN/A
10:00 am59 °FPassing clouds.6 mph94%29.86 "HgN/A
9:30 am57 °FSunny.2 mph94%29.89 "Hg10 mi
9:00 am55 °FSunny.3 mph94%29.89 "Hg10 mi
8:30 am55 °FBroken clouds.5 mph94%29.89 "HgN/A
8:00 am55 °FMore clouds than sun.2 mph94%29.89 "HgN/A
7:30 am54 °FPassing clouds.6 mph100%29.89 "HgN/A
7:00 am55 °FOvercast.2 mph94%29.89 "HgN/A
6:30 am55 °FPartly cloudy.2 mph94%29.92 "HgN/A
6:00 am54 °FPassing clouds.7 mph100%29.92 "HgN/A
5:30 am55 °FClear.8 mph100%29.92 "Hg10 mi
5:00 am57 °FClear.10 mph94%29.89 "Hg10 mi
4:30 am57 °FClear.12 mph94%29.92 "Hg10 mi
4:00 am57 °FOvercast.12 mph94%29.92 "HgN/A
3:30 am57 °FPartly cloudy.10 mph94%29.92 "HgN/A
3:00 am57 °FMostly cloudy.8 mph100%29.92 "HgN/A
2:30 am59 °FMostly cloudy.10 mph94%29.92 "HgN/A
2:00 am57 °FPassing clouds.9 mph100%29.92 "HgN/A
1:30 am57 °FPartly cloudy.10 mph94%29.92 "HgN/A
1:00 am57 °FPassing clouds.9 mph94%29.95 "HgN/A
12:30 am57 °FPassing clouds.7 mph100%29.95 "HgN/A
12:00 am59 °FPassing clouds.10 mph94%29.95 "HgN/A
11:30 pm
Thu, Oct 17
59 °FMostly cloudy.10 mph94%29.95 "HgN/A
11:00 pm59 °FMostly cloudy.10 mph94%29.95 "HgN/A
10:30 pm59 °FLow clouds.10 mph94%29.95 "HgN/A
10:00 pm59 °FMostly cloudy.9 mph94%29.95 "HgN/A
9:30 pm59 °FMostly cloudy.5 mph94%29.95 "HgN/A
9:00 pm59 °FLow clouds.6 mph94%29.95 "HgN/A
8:30 pm59 °FLight rain. Overcast.7 mph94%29.95 "HgN/A
8:00 pm59 °FMostly cloudy.7 mph94%29.95 "HgN/A
7:30 pm59 °FMostly cloudy.7 mph94%29.95 "HgN/A
7:00 pm59 °FLight rain. Mostly cloudy.6 mph94%29.95 "HgN/A
6:30 pm59 °FLight rain. Partly sunny.6 mph94%29.95 "HgN/A
6:00 pm59 °FLight rain. Mostly cloudy.6 mph94%29.95 "HgN/A
Weather by CustomWeather, © 2019

See weather overview